[[{"header":{"parameterUnit":"m.s-1","parameterCategory":1,"la1":30.2991,"la2":30.254,"lo1":-89.0895,"lo2":-89.0444,"dy":0.0017,"dx":0.0017,"nx":28,"ny":28,"refTime":"2025-08-27T21:00:00:Z","depth":0,"parameterNumber":2,"parameterNumberName":"U-component_of_WINDS"},"data":[0,0,0,0,0,0,0,0,0,0,0,0,0,0,0,0,0,0,0,0,0,0,0,0,0,0,0,0,0,0,0,0,0,0,0,0,0,0,0,0,0,0,0,0,0,0,0,0,0,0,0,0,0,0,0,0,0,0,0.5218,0.5219,0,0.5297,0.5298,0.5299,0.5336,0.5336,0.5336,0.5336,0.5415,0.5417,0.542,0,0,0,0,0,0,0,0,0,0,0,0,0,0.5097,0.5099,0.5218,0.5219,0.522,0.5297,0.5298,0.5299,0.5336,0.5336,0.5336,0.5336,0.5415,0.5417,0.542,0,0,0,0,0,0,0,0,0,0,0,0,0,0.516,0.51,0.5218,0.5248,0.5251,0.5297,0.5298,0.5299,0.5336,0.5336,0.5336,0.5336,0.5414,0.5417,0.542,0.5441,0,0,0.543,0.5431,0,0,0,0,0,0,0,0,0.5156,0.5164,0.5242,0.5246,0.525,0.5307,0.5284,0.5347,0.5336,0.5304,0.5336,0.5336,0.5379,0.5385,0.54,0.5445,0.5448,0.543,0.5432,0.5434,0.5435,0,0,0,0,0,0,0,0.5152,0.5161,0.5249,0.5243,0.5248,0.5256,0.5265,0.5296,0.5341,0.5306,0.5309,0.5318,0.5381,0.5397,0.5402,0.545,0.543,0.5433,0.5435,0.5436,0.5516,0.5516,0,0,0,0,0,0,0.5143,0.5157,0.5247,0.5251,0.5202,0.5259,0.5269,0.5288,0.534,0.5348,0.5318,0.532,0.5391,0.5398,0.5405,0.5434,0.5434,0.5437,0.5438,0.5516,0.5516,0.5516,0,0,0,0,0,0,0.514,0.5151,0.5243,0.5205,0.5218,0.5261,0.5283,0.529,0.5306,0.5349,0.5357,0.5326,0.5392,0.5401,0.5432,0.5437,0.5438,0.5441,0.5515,0.5516,0.5516,0.549,0,0,0,0,0,0,0.5137,0.5149,0.5158,0.5205,0.522,0.527,0.5283,0.5291,0.5311,0.5314,0.5359,0.5367,0.5392,0.5427,0.5435,0.5441,0.5444,0.5515,0.5516,0.5516,0.5491,0.549,0.5489,0,0,0,0,0,0.5132,0.5148,0.5159,0.5169,0.5232,0.527,0.5278,0.5308,0.5312,0.5321,0.5349,0.5365,0.5435,0.543,0.544,0.5447,0.5515,0.5515,0.5516,0.5492,0.549,0.5489,0,0,0,0,0,0,0.51,0.5155,0.5167,0.5199,0.5229,0.5276,0.5289,0.5305,0.5335,0.5336,0.5371,0.5381,0.5409,0.5431,0.5425,0.547,0.5476,0.5479,0.5455,0.5454,0.5452,0.5447,0.5446,0,0,0,0,0,0.5097,0.5123,0.5169,0.5192,0.5207,0.5245,0.5263,0.5283,0.5316,0.5329,0.5359,0.539,0.5419,0.5438,0.5467,0.5494,0.5504,0.5504,0.5502,0.5501,0.5503,0.5519,0.5519,0.5517,0.5517,0.5517,0,0,0.509,0.5123,0.5138,0.5187,0.5213,0.524,0.5256,0.5283,0.5303,0.5333,0.5365,0.5388,0.5425,0.5454,0.5469,0.5473,0.5506,0.5502,0.5501,0.5503,0.552,0.552,0.552,0.5518,0.5518,0.5517,0,0,0.5091,0.5119,0.5141,0.5167,0.5207,0.5232,0.5237,0.5281,0.5298,0.533,0.5353,0.5377,0.5426,0.5452,0.5471,0.5481,0.5497,0.5489,0.5483,0.5499,0.5499,0.5499,0.5503,0.5504,0.5491,0.5491,0.5491,0,0.5078,0.5119,0.5151,0.5177,0.5197,0.5226,0.5249,0.5272,0.5319,0.5332,0.5337,0.5399,0.5426,0.5461,0.5464,0.5478,0.5485,0.5485,0.5496,0.5497,0.5498,0.5502,0.5503,0.5489,0.549,0.549,0.549,0,0.51,0.5129,0.5142,0.5187,0.5209,0.5233,0.5268,0.5286,0.5304,0.5328,0.5361,0.5394,0.543,0.544,0.5457,0.5478,0.548,0.549,0.5497,0.5496,0.55,0.5502,0.5488,0.5488,0.5489,0.5489,0,0,0.5084,0.5146,0.5151,0.5171,0.5217,0.5239,0.5264,0.53,0.5315,0.5346,0.5367,0.5408,0.5417,0.5439,0.546,0.5473,0.5479,0.5482,0.5483,0.548,0.5504,0.5496,0.5498,0.549,0.549,0.549,0.5501,0,0.5092,0.5139,0.5168,0.5203,0.5229,0.5257,0.5278,0.5308,0.5331,0.5356,0.5382,0.541,0.542,0.5434,0.5448,0.5475,0.5484,0.5475,0.551,0.5511,0.5501,0.55,0.5492,0.55,0.5503,0.5503,0.5503,0,0.5108,0.5139,0.5177,0.5219,0.5231,0.525,0.5285,0.5309,0.5343,0.5359,0.5383,0.5403,0.543,0.5435,0.5473,0.5465,0.5481,0.5497,0.5498,0.5503,0.5507,0.5505,0.5504,0.5505,0.5506,0.5506,0.5506,0,0.5093,0.5143,0.5173,0.5189,0.5239,0.5252,0.5273,0.5308,0.5327,0.5357,0.537,0.5403,0.5421,0.5445,0.5474,0.5475,0.5509,0.5516,0.5523,0.5522,0.5529,0.5528,0.5531,0.5538,0.5538,0.5538,0.5538,0,0.5099,0.5121,0.5167,0.5184,0.521,0.5242,0.5266,0.529,0.532,0.5342,0.5367,0.5388,0.5424,0.5449,0.5472,0.55,0.5507,0.5521,0.5526,0.5519,0.5517,0.553,0.553,0.5539,0.5539,0.5539,0.5539,0,0.5086,0.5118,0.5151,0.5196,0.5208,0.5224,0.5262,0.528,0.5304,0.5333,0.5341,0.5379,0.5409,0.544,0.5482,0.5497,0.5524,0.5532,0.5513,0.5516,0.5521,0.552,0.5532,0.5535,0.554,0.554,0.554,0,0.5088,0.5106,0.5152,0.5169,0.519,0.5218,0.5238,0.527,0.529,0.5329,0.5343,0.5375,0.5403,0.545,0.5481,0.5513,0.5522,0.5524,0.5527,0.5518,0.5522,0.5521,0.5523,0.5523,0.5523,0.5522,0.5522,0,0.5088,0.5103,0.5131,0.5165,0.5188,0.5216,0.5245,0.5257,0.5295,0.5316,0.5348,0.5369,0.5411,0.5443,0.5478,0.55,0.5517,0.5521,0.5524,0.5517,0.5505,0.5512,0.551,0.5521,0.5521,0.5521,0.5521,0.5521,0.5084,0.5101,0.5136,0.5166,0.5191,0.5218,0.5237,0.5263,0.5291,0.5328,0.5345,0.5376,0.541,0.5459,0.548,0.5505,0.551,0.5514,0.5516,0.5516,0.5515,0.5501,0.5511,0.5511,0.5511,0.5512,0.5512,0,0.5085,0.5109,0.5137,0.5177,0.52,0.5215,0.5247,0.5266,0.5294,0.5324,0.5351,0.5387,0.5418,0.5451,0.5484,0.5497,0.5506,0.5505,0.5504,0.5509,0.5508,0.5502,0.5497,0.5497,0.5497,0.5497,0.5497,0.5497,0.5089,0.5119,0.5137,0.5179,0.5203,0.5234,0.5252,0.5276,0.53,0.5339,0.5365,0.5387,0.5418,0.5453,0.5482,0.549,0.5501,0.5498,0.5509,0.5508,0.5509,0.551,0.5505,0.55,0.55,0.5508,0.5508,0.5508]},{"header":{"parameterUnit":"m.s-1","parameterCategory":1,"la1":30.2991,"la2":30.254,"lo1":-89.0895,"lo2":-89.0444,"dy":0.0017,"dx":0.0017,"nx":28,"ny":28,"refTime":"2025-08-27T21:00:00:Z","depth":0,"parameterNumber":3,"parameterNumberName":"V-component_of_WINDS"},"data":[0,0,0,0,0,0,0,0,0,0,0,0,0,0,0,0,0,0,0,0,0,0,0,0,0,0,0,0,0,0,0,0,0,0,0,0,0,0,0,0,0,0,0,0,0,0,0,0,0,0,0,0,0,0,0,0,0,0,3.0287,3.0286,0,3.0236,3.0235,3.0234,3.0156,3.0155,3.0153,3.0152,3.0101,3.0101,3.0101,0,0,0,0,0,0,0,0,0,0,0,0,0,3.0317,3.0317,3.0287,3.0286,3.0285,3.0236,3.0235,3.0234,3.0156,3.0154,3.0153,3.0151,3.0101,3.0101,3.0101,0,0,0,0,0,0,0,0,0,0,0,0,0,3.0289,3.0317,3.0287,3.024,3.0236,3.0236,3.0235,3.0234,3.0157,3.0154,3.0152,3.015,3.0101,3.0101,3.0101,3.0142,0,0,3.01,3.01,0,0,0,0,0,0,0,0,3.0291,3.0288,3.0248,3.0244,3.0238,3.02,3.0227,3.0203,3.0157,3.0187,3.0152,3.0149,3.0136,3.0132,3.0128,3.014,3.0138,3.01,3.01,3.01,3.01,0,0,0,0,0,0,0,3.0293,3.029,3.0266,3.0247,3.0242,3.0222,3.0216,3.0222,3.0174,3.0184,3.0178,3.0173,3.0133,3.0128,3.0126,3.0137,3.01,3.01,3.01,3.01,3.0179,3.0181,0,0,0,0,0,0,3.0301,3.0292,3.0268,3.0265,3.026,3.0224,3.0216,3.0214,3.0173,3.0165,3.0175,3.017,3.0129,3.0126,3.0124,3.0168,3.01,3.01,3.01,3.0177,3.018,3.0182,0,0,0,0,0,0,3.0302,3.03,3.027,3.0277,3.0271,3.0225,3.0224,3.0215,3.021,3.0166,3.0157,3.0179,3.0127,3.0124,3.0138,3.0165,3.01,3.01,3.0174,3.0178,3.0181,3.0259,0,0,0,0,0,0,3.0304,3.0301,3.0316,3.0278,3.0271,3.0285,3.0225,3.0215,3.021,3.0202,3.0168,3.016,3.0125,3.0138,3.0138,3.0164,3.01,3.0172,3.0176,3.018,3.0253,3.0264,3.0273,0,0,0,0,0,3.0305,3.0341,3.0317,3.0315,3.0289,3.0287,3.0283,3.0242,3.0212,3.0227,3.0199,3.0161,3.0163,3.014,3.0139,3.0166,3.017,3.0175,3.0179,3.0249,3.0262,3.0273,0,0,0,0,0,0,3.0384,3.0335,3.0308,3.0333,3.0314,3.0274,3.0291,3.0258,3.0248,3.0241,3.0191,3.0184,3.0204,3.0186,3.0162,3.0203,3.016,3.0165,3.0214,3.0226,3.0236,3.0239,3.01,0,0,0,0,0,3.0404,3.0406,3.0363,3.0389,3.0381,3.0338,3.0335,3.0305,3.0284,3.0276,3.0249,3.0231,3.0227,3.0226,3.022,3.0251,3.0242,3.0269,3.0279,3.0287,3.0291,3.0305,3.0316,3.0198,3.0198,3.0198,0,0,3.0446,3.042,3.0424,3.0404,3.0386,3.0389,3.0332,3.0338,3.0339,3.0277,3.0288,3.0268,3.0244,3.0267,3.0275,3.0252,3.0322,3.0293,3.03,3.03,3.0311,3.0322,3.0332,3.0201,3.02,3.02,0,0,3.0524,3.0504,3.0522,3.0506,3.048,3.0451,3.0455,3.0419,3.0403,3.0414,3.0367,3.0368,3.0363,3.0347,3.0339,3.041,3.0374,3.041,3.0461,3.0475,3.0484,3.0492,3.0516,3.0526,3.0414,3.0415,3.0415,0,3.0579,3.0581,3.0536,3.0545,3.0537,3.0481,3.0499,3.0485,3.0459,3.0455,3.043,3.0421,3.0401,3.0418,3.0435,3.0431,3.0434,3.0413,3.0487,3.0494,3.0501,3.0523,3.0533,3.0419,3.0418,3.0418,3.0417,0,3.065,3.0652,3.067,3.0645,3.064,3.0653,3.061,3.061,3.0581,3.0554,3.0565,3.0539,3.0526,3.0528,3.05,3.0541,3.0528,3.0496,3.0451,3.0517,3.0537,3.0546,3.0425,3.0423,3.0422,3.0421,0,0,3.0775,3.0725,3.0732,3.0719,3.0686,3.0687,3.0698,3.0685,3.0685,3.0669,3.0676,3.0673,3.0642,3.0633,3.0602,3.0614,3.0671,3.058,3.0579,3.0597,3.0713,3.0736,3.0747,3.0647,3.0649,3.065,3.0714,0,3.0844,3.0859,3.0819,3.0844,3.0845,3.0791,3.08,3.0781,3.0757,3.0754,3.0728,3.0725,3.0686,3.068,3.069,3.0662,3.0693,3.0657,3.0652,3.0653,3.0659,3.0758,3.0783,3.0845,3.0722,3.0723,3.0724,0,3.0927,3.0915,3.0939,3.0904,3.0903,3.0912,3.0896,3.0894,3.0871,3.0853,3.0842,3.0806,3.0813,3.0772,3.0781,3.0757,3.0753,3.0739,3.074,3.0737,3.0692,3.0756,3.0864,3.0873,3.0736,3.0735,3.0735,0,3.1014,3.1004,3.1016,3.1008,3.0967,3.0974,3.0958,3.0933,3.0927,3.0914,3.0909,3.0898,3.0891,3.0882,3.0844,3.0817,3.0857,3.0812,3.0841,3.0842,3.0851,3.0851,3.0958,3.0851,3.0851,3.0851,3.085,0,3.1095,3.1112,3.1055,3.1063,3.108,3.1034,3.1052,3.103,3.1008,3.1011,3.0965,3.0968,3.0917,3.0915,3.0885,3.0897,3.0894,3.0879,3.0871,3.0882,3.0884,3.0878,3.0872,3.0853,3.0852,3.0852,3.0851,0,3.1195,3.1157,3.1168,3.1128,3.1119,3.1133,3.1099,3.1105,3.1078,3.1081,3.1079,3.1037,3.1032,3.0993,3.0979,3.0959,3.0981,3.0965,3.0988,3.0983,3.1013,3.101,3.1119,3.113,3.1018,3.1019,3.102,0,3.1249,3.126,3.1222,3.122,3.1205,3.1203,3.1197,3.1153,3.1148,3.1122,3.1131,3.1122,3.1112,3.1106,3.1074,3.1063,3.1045,3.1084,3.1043,3.1054,3.1044,3.1043,3.1043,3.1092,3.1094,3.1095,3.1096,0,3.1347,3.1328,3.1321,3.1307,3.1301,3.1288,3.1272,3.1274,3.1224,3.1222,3.1215,3.1208,3.1193,3.1185,3.1168,3.115,3.1115,3.1109,3.1115,3.1127,3.1139,3.1131,3.1011,3.1107,3.1106,3.1105,3.1104,3.1104,3.1424,3.1431,3.1405,3.1399,3.1382,3.1369,3.1371,3.1344,3.1338,3.1323,3.1297,3.1294,3.127,3.1244,3.1229,3.1226,3.1205,3.1214,3.1216,3.1219,3.1224,3.1141,3.1223,3.1223,3.1222,3.1222,3.1222,0,3.1519,3.1499,3.1494,3.1473,3.1468,3.1435,3.1416,3.1414,3.1412,3.1392,3.1383,3.1376,3.1367,3.1334,3.1321,3.1325,3.1308,3.1323,3.1322,3.1318,3.1244,3.124,3.1337,3.1337,3.1337,3.1337,3.1337,3.1337,3.1567,3.1578,3.1556,3.1557,3.1537,3.1534,3.1526,3.1513,3.1496,3.149,3.1482,3.1461,3.1435,3.1421,3.1411,3.1401,3.1398,3.1418,3.1403,3.1335,3.1324,3.1313,3.1308,3.1418,3.1418,3.1477,3.1478,3.1478]}]]